OBJECT W (43778 NORAD) Tracking and Keplerian Element Data

This shows tracking and keplerian element data for the satellite.

Feedback or suggestion? Click here.




ElementValue
Catalog43778
NameOBJECT W
Epoch Orbit1352
Epoch Day66.13515081
Epoch Year2019
RAAN139.1869
Inclination97.7459
Eccentricity0.0012961
Argument of Perigee320.132
Mean Anonmoly39.8948
Mean Motion14.94789053
Decay Rate4.61E-06
L11 43778U 18099W 19066.13515081 .00000461 00000-0 47644-4 0 9992
L22 43778 97.7459 139.1869 0012961 320.1320 39.8948 14.94789053 13521

Live tracking and technical data element details for OBJECT W (NORAD 43778). OBJECT W can be tracked NOW for your location showing map with azimuth and elevation plus other details from your city location.

Track the satellite on the map from your city or location and see movement details for azimuth, elevation, latitude, longitude, range, height, and movement on the map or in text.







IsCatalogInMostPopularTable: catalog: 43778, numindb: 63
Update: records affected: 1



GetName: 43778 OBJECT W

Hit Count: updated at: Mon, 15 Jul 2019 22:38:10 GMT